EW1392 Weather Reports


Display with metric or nautical units.
time (UTC)temp
F
wind
direction
speed
MPH
gust
MPH
rain 1hr
in
rain 24hr
in
rain mn
in
humidity
%
barometer
mb
20260831174551 59 300 0.0 0.0 0.00 0.00 0.00 79 1014.2
20260831173045 57 300 0.0 0.0 0.00 0.00 0.00 81 1014.4
20260831171540 55 300 0.0 0.0 0.00 0.00 0.00 86 1014.5
20260831170040 53 300 0.0 0.0 0.00 0.00 0.00 89 1014.5
20260831164531 51 300 0.0 0.0 0.00 0.00 0.00 93 1014.8
20260831163029 49 300 0.0 0.0 0.00 0.00 0.00 96 1015.0
20260831161530 47 300 0.0 0.0 0.00 0.00 0.00 96 1015.2
20260831160026 46 300 0.0 0.0 0.00 0.00 0.00 96 1015.3
20260831154526 45 300 0.0 0.0 0.00 0.00 0.00 96 1015.4
20260831153025 44 300 0.0 0.0 0.00 0.00 0.00 96 1015.4
20260831151525 43 300 0.0 0.0 0.00 0.00 0.00 96 1015.5
20260831150025 42 300 0.0 0.0 0.00 0.00 0.00 96 1015.5
20260831144523 42 300 0.0 0.0 0.00 0.00 0.00 95 1015.5
20260831143023 41 300 0.0 0.0 0.00 0.00 0.00 95 1015.3
20260831141522 41 300 0.0 0.0 0.00 0.00 0.00 95 1015.3
20260831140033 41 300 0.0 0.0 0.00 0.00 0.00 94 1015.2
20260831134521 41 300 0.0 0.0 0.00 0.00 0.00 94 1014.9
20260831133020 41 300 0.0 0.0 0.00 0.00 0.00 94 1014.9
20260831131520 41 300 0.0 0.0 0.00 0.00 0.00 94 1014.9
20260831130020 41 300 0.0 0.0 0.00 0.00 0.00 93 1014.9
20260831124517 41 300 0.0 0.0 0.00 0.00 0.00 93 1014.9
20260831123016 42 300 0.0 0.0 0.00 0.00 0.00 93 1014.9
20260831121517 42 300 0.0 0.0 0.00 0.00 0.00 93 1014.9
20260831120017 42 300 0.0 0.0 0.00 0.00 0.00 92 1015.0
20260831114513 42 300 0.0 0.0 0.00 0.00 0.00 92 1015.1
20260831113011 43 300 0.0 0.0 0.00 0.00 0.00 93 1015.0
20260831111510 43 300 0.0 0.0 0.00 0.00 0.00 92 1015.2